SCP
0 0 0 0 0 0 0 0 0 0 0 0 0 0 0 0 0 0 0 0 0 0 0 0 0 0 0 0 0 0 0 0 0 0 1 0 0 0
0 0 0 0 0 0 0 0 0 0 0 0 0 0 0 0 0 0 0 -0 -0 -0 -0 -0 -0 -0 0 0 0 0 0 0 0 0 0 0 0 0
0 0 0 0 0 0 0 0 0 0 0 0 0 0 0 0 0 0 0 -0 -0 -0 -0 -0 0 0 0 0 0 0 0 0 0 0 0 0 0 0
0 0 0 0 0 0 0 0 0 0 0 0 0 0 0 0 0 0 0 0 0 -0 -0 0 0 0 0 0 0 0 0 0 0 0 0 0 0 0
0 0 0 0 0 0 0 0 0 0 0 0 0 0 0 0 0 0 0 0 0 0 0 0 0 0 0 0 0 0 0 0 0 0 0 0 0 0
0 0 0 0 0 0 0 0 0 0 0 0 0 0 0 0 0 0 0 0 0 0 -0 0 0 0 0 0 0 0 0 0 0 0 0 0 0 0
0 0 0 0 0 0 0 0 0 0 0 0 0 0 0 0 0 0 0 0 0 0 0 0 0 0 0 0 0 0 0 0 0 0 0 0 0 0
0 0 0 0 0 0 0 0 0 0 0 0 0 0 0 0 0 0 0 0 0 0 0 0 0 0 0 0 0 0 0 0 0 0 0 0 0 0
0 0 0 0 0 0 0 0 0 0 0 0 0 0 0 0 0 0 0 0 0 0 0 0 0 0 0 0 0 0 0 0 0 0 0 0 0 0
0 0 0 0 0 0 0 0 0 0 0 0 0 0 0 0 0 0 0 0 0 0 0 0 0 0 0 0 0 0 0 0 0 0 0 0 0 0
0 0 0 0 0 0 0 0 0 0 0 0 0 0 0 0 0 0 0 0 0 0 0 0 0 0 0 0 0 0 0 0 0 0 0 0 0 0
0 0 0 0 0 0 0 0 0 0 0 0 0 0 0 0 0 0 0 0 0 0 0 0 0 0 0 0 0 0 0 0 0 0 0 0 0 0
0 0 0 0 0 0 0 0 0 0 0 0 0 0 0 0 0 0 0 0 0 0 0 0 0 0 0 0 0 0 0 0 0 0 0 0 0 0
0 0 0 -0 0 0 0 0 0 0 0 0 0 0 0 0 0 0 0 0 0 0 0 0 0 0 0 0 0 0 0 0 0 0 0 0 0 0
0 0 0 0 0 0 0 0 0 0 0 0 0 0 0 0 0 0 0 0 0 0 0 0 0 0 0 0 0 0 0 0 0 0 0 0 0 0
0 0 0 0 0 0 0 0 0 0 0 0 0 0 0 0 0 0 0 0 0 0 -0 -0 0 0 0 0 0 0 0 0 0 0 0 0 0 0
0 0 0 0 0 0 0 0 0 0 0 0 0 0 0 0 0 -0 -0 0 0 0 0 0 0 0 0 0 0 0 0 0 0 0 0 0 0 0
0 0 0 0 0 0 0 0 0 0 0 0 0 0 0 0 0 0 0 0 0 0 0 0 0 0 0 0 0 0 0 0 0 0 0 0 0 0
0 0 0 0 0 0 0 0 0 0 0 0 0 -0 0 0 -0 0 0 0 0 0 0 0 0 0 0 0 0 0 0 0 0 0 0 0 0 0
0 0 0 0 0 0 0 0 0 0 0 0 0 0 0 0 -0 -0 0 0 0 0 0 0 0 0 0 0 0 0 0 0 0 0 0 0 0 0
0 0 0 0 0 0 0 0 0 0 0 0 0 0 0 -0 -0 0 0 0 0 0 0 0 0 0 0 0 0 0 0 0 0 0 0 0 0 0
0 0 0 0 -0 0 0 0 0 0 0 0 0 0 0 -0 -0 0 0 0 0 0 0 0 0 0 0 0 0 0 0 0 0 -0 -0 0 0 -0
0 0 0 0 0 0 0 0 0 0 0 0 0 0 -0 -0 0 0 0 0 0 0 0 0 0 0 0 0 0 0 0 0 0 0 0 -0 0 0
Wind_Speed_500mb
49 54 58 61 66 70 71 71 68 67 80 74 69 64 68 74 76 75 79 84 79 72 65 63 66 67 56 63 58 59 59 51 47 48 42 44 43 38
50 51 54 55 54 54 56 62 67 73 80 72 80 86 84 84 80 78 77 83 83 81 82 78 76 84 72 62 55 50 52 49 48 43 43 41 43 41
51 53 55 53 56 58 56 53 58 63 79 84 83 81 81 85 90 94 96 92 94 89 90 86 79 74 60 56 38 45 49 51 45 41 43 46 49 40
49 51 54 53 57 58 60 57 61 67 77 83 79 80 77 70 69 71 75 83 95 85 93 89 67 57 56 49 33 30 31 38 48 47 48 54 47 41
47 51 55 55 61 61 60 63 64 66 71 76 80 77 78 71 64 58 60 62 71 84 72 69 55 54 54 50 42 40 42 45 47 44 54 54 50 36
52 57 60 64 65 67 70 72 72 73 68 69 70 69 67 66 62 69 72 67 74 65 73 53 60 54 53 52 48 44 44 45 50 52 46 41 52 44
53 50 48 52 56 58 61 66 73 77 72 73 70 62 64 63 64 61 62 63 60 53 59 53 51 58 60 58 51 47 46 46 46 46 54 44 53 56
46 51 61 66 67 64 64 65 61 71 81 82 76 67 67 66 62 61 58 53 57 22 28 40 45 51 58 60 55 48 48 45 40 41 47 49 56 52
55 61 62 66 64 62 61 58 64 64 70 79 85 79 74 60 60 63 59 55 49 47 52 45 25 39 55 56 49 40 44 41 42 38 47 52 55 49
51 50 55 59 51 56 60 59 61 67 64 63 70 70 66 57 58 53 52 55 52 52 50 58 34 39 40 51 42 34 41 39 39 41 50 56 51 47
41 43 51 52 51 52 59 66 64 65 64 63 65 62 59 54 51 52 54 50 55 50 30 43 45 37 45 49 43 37 35 30 36 40 51 54 49 47
44 48 52 49 48 50 51 56 68 68 59 58 60 61 57 55 51 52 54 55 55 53 35 37 43 48 44 47 39 36 36 38 37 46 51 52 51 48
47 41 45 55 47 41 44 52 53 52 49 46 51 56 58 55 53 48 52 54 58 61 57 5 19 52 37 29 35 35 34 35 45 52 53 52 50 46
33 35 42 48 47 46 47 45 39 46 41 35 46 55 58 57 58 57 60 51 51 61 60 56 33 27 46 32 21 25 36 37 47 58 61 56 51 46
25 31 42 48 51 47 45 48 50 34 45 40 36 42 51 54 55 56 49 46 49 53 59 61 47 13 10 13 24 26 27 45 54 63 67 64 63 59
35 40 46 53 67 57 54 55 62 46 31 34 37 39 25 25 31 35 39 42 48 51 53 54 38 26 25 31 29 22 25 34 47 62 73 70 69 62
40 50 61 64 68 69 55 57 69 62 43 19 27 16 6 11 18 20 33 41 48 52 42 45 32 28 31 34 33 32 35 39 45 71 79 77 73 58
48 62 70 69 75 82 75 64 64 64 55 25 15 20 13 13 23 30 41 57 48 45 41 44 38 34 36 29 28 27 25 33 39 58 59 65 65 54
56 63 68 70 76 82 82 79 74 63 56 49 18 16 27 30 31 31 25 27 43 42 49 46 46 46 38 31 23 35 33 41 52 61 54 56 56 52
52 59 63 70 78 82 84 86 88 72 59 54 40 25 19 18 26 26 12 6 26 39 45 53 50 50 45 37 27 29 41 56 61 60 63 57 50 51
52 53 58 64 70 76 81 85 85 86 76 64 49 37 26 16 16 17 9 18 24 39 44 47 45 41 35 33 23 35 35 32 38 53 55 46 44 41
54 56 58 61 66 72 78 80 85 88 90 76 55 47 35 32 23 12 13 19 36 42 41 39 39 44 43 47 33 44 46 37 33 36 48 47 41 37
55 58 62 62 62 68 73 79 83 85 88 90 70 49 40 31 20 17 21 28 34 33 29 33 38 48 47 46 53 52 47 39 37 42 43 43 35 37
Wind_Direction_500mb
289 287 285 282 279 277 276 277 281 292 287 286 287 284 267 266 267 267 266 268 266 266 266 265 266 276 279 273 267 260 264 262 252 245 240 241 244 251
297 294 292 292 289 288 286 282 279 280 284 283 281 280 276 271 268 264 265 266 263 262 266 270 275 273 273 266 272 258 253 249 242 241 237 239 244 247
300 298 297 297 291 290 291 286 279 280 287 292 288 288 287 286 281 273 268 267 265 262 261 263 265 268 250 258 263 254 256 250 247 240 235 233 236 240
306 305 303 303 296 294 293 285 279 280 284 287 289 290 292 293 287 282 279 270 263 264 263 260 263 247 238 238 246 256 258 261 255 246 233 231 226 233
316 313 310 310 305 302 296 292 288 288 287 287 288 289 292 295 293 286 280 279 273 260 265 256 251 242 228 233 246 250 259 262 252 244 233 234 229 226
308 303 303 303 298 296 291 286 285 284 285 285 287 293 295 294 291 290 287 287 279 270 252 257 248 244 234 236 242 257 257 267 250 242 243 235 222 211
312 322 324 323 318 313 306 296 284 279 279 283 285 283 291 298 295 295 283 289 291 272 254 259 251 243 235 238 246 255 264 263 249 242 233 232 217 214
325 321 315 310 309 301 294 295 295 277 268 268 271 272 283 290 298 297 292 296 301 292 254 254 244 237 228 237 247 257 258 248 239 242 229 221 212 211
314 318 318 318 313 307 299 295 288 288 269 262 264 270 279 287 290 292 291 289 288 271 272 267 245 242 235 234 244 256 242 238 227 236 227 208 203 205
317 327 328 328 335 334 325 307 289 287 281 263 262 264 273 279 283 288 291 287 283 277 281 264 248 233 225 232 241 258 236 234 225 226 207 202 203 210
325 326 335 329 325 321 316 312 306 288 285 275 264 262 262 268 277 278 272 274 282 280 285 259 253 252 226 232 238 244 228 216 211 208 198 202 205 204
330 332 338 339 326 322 323 319 314 309 294 279 270 260 263 264 266 262 263 262 266 278 264 237 252 232 214 223 233 225 221 213 204 197 199 201 203 204
331 350 5 2 352 348 343 345 336 326 303 277 270 267 267 262 267 264 257 257 255 249 231 206 254 210 196 200 215 216 218 215 200 197 199 200 202 203
341 354 358 353 355 4 356 346 336 334 328 290 266 266 266 266 259 267 271 255 257 257 241 249 260 217 201 208 220 234 215 203 203 203 198 196 196 192
5 5 6 359 5 357 352 0 348 356 335 309 304 296 284 276 274 272 267 260 255 254 246 245 256 271 236 235 255 245 230 207 202 205 203 199 196 193
19 20 16 15 12 5 7 12 8 9 343 334 312 312 298 283 265 254 246 248 251 246 236 236 241 230 227 247 262 249 237 211 216 212 202 201 195 195
21 26 20 12 16 12 20 9 10 16 10 15 337 327 324 355 301 265 244 232 231 233 227 216 235 219 233 244 248 256 258 244 229 207 206 193 190 190
26 30 30 22 22 17 13 8 6 8 14 359 320 299 279 269 288 296 302 233 219 214 205 204 219 214 219 227 241 245 256 215 212 202 192 184 183 184
32 29 31 25 20 20 17 15 12 10 13 17 18 280 279 279 294 308 325 192 194 198 195 212 228 214 208 211 231 225 229 190 177 178 185 191 187 193
36 28 21 21 21 17 16 17 18 14 15 14 18 19 12 328 305 296 308 173 180 190 194 210 213 213 217 211 203 207 212 196 192 192 191 196 200 190
27 24 18 19 17 15 14 14 19 16 19 11 9 13 22 3 294 280 250 193 209 198 198 201 205 205 215 195 186 169 169 195 220 205 192 186 181 196
22 20 14 14 15 13 11 12 13 16 19 12 6 7 13 28 2 275 208 226 194 195 194 199 205 208 218 221 209 173 165 171 173 171 172 183 198 205
23 22 18 15 12 13 11 10 10 12 15 11 12 10 20 33 21 183 217 198 184 185 185 190 202 200 214 214 191 169 167 171 174 185 193 195 206 201
Wind_Speed_850mb
49 54 58 61 66 70 71 71 68 67 80 74 69 64 68 74 76 75 79 84 79 72 65 63 66 67 56 63 58 59 59 51 47 48 42 44 43 38
50 51 54 55 54 54 56 62 67 73 80 72 80 86 84 84 80 78 77 83 83 81 82 78 76 84 72 62 55 50 52 49 48 43 43 41 43 41
51 53 55 53 56 58 56 53 58 63 79 84 83 81 81 85 90 94 96 92 94 89 90 86 79 74 60 56 38 45 49 51 45 41 43 46 49 40
49 51 54 53 57 58 60 57 61 67 77 83 79 80 77 70 69 71 75 83 95 85 93 89 67 57 56 49 33 30 31 38 48 47 48 54 47 41
47 51 55 55 61 61 60 63 64 66 71 76 80 77 78 71 64 58 60 62 71 84 72 69 55 54 54 50 42 40 42 45 47 44 54 54 50 36
52 57 60 64 65 67 70 72 72 73 68 69 70 69 67 66 62 69 72 67 74 65 73 53 60 54 53 52 48 44 44 45 50 52 46 41 52 44
53 50 48 52 56 58 61 66 73 77 72 73 70 62 64 63 64 61 62 63 60 53 59 53 51 58 60 58 51 47 46 46 46 46 54 44 53 56
46 51 61 66 67 64 64 65 61 71 81 82 76 67 67 66 62 61 58 53 57 22 28 40 45 51 58 60 55 48 48 45 40 41 47 49 56 52
55 61 62 66 64 62 61 58 64 64 70 79 85 79 74 60 60 63 59 55 49 47 52 45 25 39 55 56 49 40 44 41 42 38 47 52 55 49
51 50 55 59 51 56 60 59 61 67 64 63 70 70 66 57 58 53 52 55 52 52 50 58 34 39 40 51 42 34 41 39 39 41 50 56 51 47
41 43 51 52 51 52 59 66 64 65 64 63 65 62 59 54 51 52 54 50 55 50 30 43 45 37 45 49 43 37 35 30 36 40 51 54 49 47
44 48 52 49 48 50 51 56 68 68 59 58 60 61 57 55 51 52 54 55 55 53 35 37 43 48 44 47 39 36 36 38 37 46 51 52 51 48
47 41 45 55 47 41 44 52 53 52 49 46 51 56 58 55 53 48 52 54 58 61 57 5 19 52 37 29 35 35 34 35 45 52 53 52 50 46
33 35 42 48 47 46 47 45 39 46 41 35 46 55 58 57 58 57 60 51 51 61 60 56 33 27 46 32 21 25 36 37 47 58 61 56 51 46
25 31 42 48 51 47 45 48 50 34 45 40 36 42 51 54 55 56 49 46 49 53 59 61 47 13 10 13 24 26 27 45 54 63 67 64 63 59
35 40 46 53 67 57 54 55 62 46 31 34 37 39 25 25 31 35 39 42 48 51 53 54 38 26 25 31 29 22 25 34 47 62 73 70 69 62
40 50 61 64 68 69 55 57 69 62 43 19 27 16 6 11 18 20 33 41 48 52 42 45 32 28 31 34 33 32 35 39 45 71 79 77 73 58
48 62 70 69 75 82 75 64 64 64 55 25 15 20 13 13 23 30 41 57 48 45 41 44 38 34 36 29 28 27 25 33 39 58 59 65 65 54
56 63 68 70 76 82 82 79 74 63 56 49 18 16 27 30 31 31 25 27 43 42 49 46 46 46 38 31 23 35 33 41 52 61 54 56 56 52
52 59 63 70 78 82 84 86 88 72 59 54 40 25 19 18 26 26 12 6 26 39 45 53 50 50 45 37 27 29 41 56 61 60 63 57 50 51
52 53 58 64 70 76 81 85 85 86 76 64 49 37 26 16 16 17 9 18 24 39 44 47 45 41 35 33 23 35 35 32 38 53 55 46 44 41
54 56 58 61 66 72 78 80 85 88 90 76 55 47 35 32 23 12 13 19 36 42 41 39 39 44 43 47 33 44 46 37 33 36 48 47 41 37
55 58 62 62 62 68 73 79 83 85 88 90 70 49 40 31 20 17 21 28 34 33 29 33 38 48 47 46 53 52 47 39 37 42 43 43 35 37
Wind_Direction_850mb
289 287 285 282 279 277 276 277 281 292 287 286 287 284 267 266 267 267 266 268 266 266 266 265 266 276 279 273 267 260 264 262 252 245 240 241 244 251
297 294 292 292 289 288 286 282 279 280 284 283 281 280 276 271 268 264 265 266 263 262 266 270 275 273 273 266 272 258 253 249 242 241 237 239 244 247
300 298 297 297 291 290 291 286 279 280 287 292 288 288 287 286 281 273 268 267 265 262 261 263 265 268 250 258 263 254 256 250 247 240 235 233 236 240
306 305 303 303 296 294 293 285 279 280 284 287 289 290 292 293 287 282 279 270 263 264 263 260 263 247 238 238 246 256 258 261 255 246 233 231 226 233
316 313 310 310 305 302 296 292 288 288 287 287 288 289 292 295 293 286 280 279 273 260 265 256 251 242 228 233 246 250 259 262 252 244 233 234 229 226
308 303 303 303 298 296 291 286 285 284 285 285 287 293 295 294 291 290 287 287 279 270 252 257 248 244 234 236 242 257 257 267 250 242 243 235 222 211
312 322 324 323 318 313 306 296 284 279 279 283 285 283 291 298 295 295 283 289 291 272 254 259 251 243 235 238 246 255 264 263 249 242 233 232 217 214
325 321 315 310 309 301 294 295 295 277 268 268 271 272 283 290 298 297 292 296 301 292 254 254 244 237 228 237 247 257 258 248 239 242 229 221 212 211
314 318 318 318 313 307 299 295 288 288 269 262 264 270 279 287 290 292 291 289 288 271 272 267 245 242 235 234 244 256 242 238 227 236 227 208 203 205
317 327 328 328 335 334 325 307 289 287 281 263 262 264 273 279 283 288 291 287 283 277 281 264 248 233 225 232 241 258 236 234 225 226 207 202 203 210
325 326 335 329 325 321 316 312 306 288 285 275 264 262 262 268 277 278 272 274 282 280 285 259 253 252 226 232 238 244 228 216 211 208 198 202 205 204
330 332 338 339 326 322 323 319 314 309 294 279 270 260 263 264 266 262 263 262 266 278 264 237 252 232 214 223 233 225 221 213 204 197 199 201 203 204
331 350 5 2 352 348 343 345 336 326 303 277 270 267 267 262 267 264 257 257 255 249 231 206 254 210 196 200 215 216 218 215 200 197 199 200 202 203
341 354 358 353 355 4 356 346 336 334 328 290 266 266 266 266 259 267 271 255 257 257 241 249 260 217 201 208 220 234 215 203 203 203 198 196 196 192
5 5 6 359 5 357 352 0 348 356 335 309 304 296 284 276 274 272 267 260 255 254 246 245 256 271 236 235 255 245 230 207 202 205 203 199 196 193
19 20 16 15 12 5 7 12 8 9 343 334 312 312 298 283 265 254 246 248 251 246 236 236 241 230 227 247 262 249 237 211 216 212 202 201 195 195
21 26 20 12 16 12 20 9 10 16 10 15 337 327 324 355 301 265 244 232 231 233 227 216 235 219 233 244 248 256 258 244 229 207 206 193 190 190
26 30 30 22 22 17 13 8 6 8 14 359 320 299 279 269 288 296 302 233 219 214 205 204 219 214 219 227 241 245 256 215 212 202 192 184 183 184
32 29 31 25 20 20 17 15 12 10 13 17 18 280 279 279 294 308 325 192 194 198 195 212 228 214 208 211 231 225 229 190 177 178 185 191 187 193
36 28 21 21 21 17 16 17 18 14 15 14 18 19 12 328 305 296 308 173 180 190 194 210 213 213 217 211 203 207 212 196 192 192 191 196 200 190
27 24 18 19 17 15 14 14 19 16 19 11 9 13 22 3 294 280 250 193 209 198 198 201 205 205 215 195 186 169 169 195 220 205 192 186 181 196
22 20 14 14 15 13 11 12 13 16 19 12 6 7 13 28 2 275 208 226 194 195 194 199 205 208 218 221 209 173 165 171 173 171 172 183 198 205
23 22 18 15 12 13 11 10 10 12 15 11 12 10 20 33 21 183 217 198 184 185 185 190 202 200 214 214 191 169 167 171 174 185 193 195 206 201